Theta_e
277 277 277 277 276 276 276 276 276 276 276 276 275 275 275 275 275 275 275 276 276 277 278 279 281 282 283 284 287 291 295 295 294 293 293 293 294 295 299 301 300 299
276 276 276 276 276 276 276 276 275 275 275 275 275 274 274 274 274 274 275 275 276 276 278 279 281 280 281 283 286 290 293 295 294 293 293 293 293 295 297 300 301 300
276 276 275 275 275 275 275 275 275 275 275 274 274 274 274 274 274 274 274 275 275 276 278 279 280 279 280 283 287 290 292 294 294 293 293 293 293 294 296 299 301 300
275 275 275 275 275 275 275 275 275 275 274 274 274 274 273 273 273 273 274 274 275 276 277 278 278 279 280 282 285 288 291 293 294 293 293 293 293 294 295 298 300 301
275 274 274 274 274 275 275 275 274 274 274 274 274 273 273 273 273 273 273 274 275 275 276 277 277 278 279 281 282 286 290 292 293 293 293 293 293 293 294 296 300 301
274 274 274 274 274 274 274 274 274 274 274 274 273 273 273 272 272 272 273 273 274 275 275 276 277 278 279 280 281 284 288 291 292 293 293 293 293 293 294 295 298 301
273 273 273 273 274 274 274 274 274 274 274 273 273 273 272 272 272 272 272 273 273 274 275 276 277 278 279 279 281 283 286 290 292 292 293 293 293 293 294 295 296 299
273 272 273 273 273 273 274 274 274 273 273 273 272 272 272 272 272 272 272 272 273 274 275 275 276 277 278 279 281 283 287 290 291 292 292 292 292 293 293 294 295 297
272 272 272 272 273 273 273 273 273 273 273 272 272 272 272 271 271 271 272 272 272 273 274 274 275 277 278 279 280 282 285 289 291 291 292 291 292 292 292 293 294 295
271 272 272 272 272 272 273 273 273 273 272 272 272 271 271 271 271 271 272 272 273 273 274 275 276 277 278 279 279 280 282 286 290 291 291 291 291 291 291 292 293 294
271 271 271 272 272 272 273 273 272 272 272 271 271 271 271 271 271 271 272 273 273 274 275 275 276 276 277 278 278 279 279 282 286 290 291 291 291 291 291 291 292 293
270 271 271 271 271 272 272 272 272 272 271 271 270 270 270 270 271 271 271 271 272 273 273 273 274 274 275 276 277 278 279 280 283 287 290 291 291 291 291 290 291 292
270 270 271 271 271 271 271 271 271 271 271 270 269 269 270 270 270 270 271 271 271 271 272 272 273 274 274 275 276 277 278 279 281 284 288 290 290 290 290 290 291 291
269 270 270 270 270 271 271 270 270 270 269 269 269 269 269 269 270 270 270 270 271 271 272 272 273 274 274 275 276 277 278 280 281 284 288 290 290 290 290 290 290 290
269 269 270 270 270 270 270 269 269 269 268 268 268 268 268 269 269 269 270 270 270 271 271 272 273 274 275 276 277 278 279 280 282 284 287 289 289 290 290 290 290 290
268 269 269 269 269 269 269 268 268 268 267 267 267 268 268 268 269 269 269 270 270 270 271 272 273 275 276 277 278 279 280 281 282 283 285 287 288 289 289 290 290 290
268 269 269 268 268 267 267 267 267 266 266 267 267 267 268 268 269 269 269 270 270 270 271 271 272 273 275 276 278 279 280 281 282 283 284 286 288 289 289 290 290 290
268 268 267 267 267 266 266 266 266 266 266 266 267 267 267 268 268 269 269 270 270 270 271 271 272 273 274 276 278 279 281 282 283 283 284 285 287 289 290 290 290 290
267 267 266 266 265 265 265 265 265 265 265 266 266 267 267 268 268 269 269 270 270 270 270 271 272 273 274 276 278 280 281 282 283 284 284 285 286 288 290 290 290 290
266 265 265 265 264 265 264 264 265 265 265 266 266 267 268 268 269 269 269 270 270 270 271 271 272 273 274 276 278 280 281 282 283 284 285 285 286 287 289 290 290 290
264 264 264 264 264 264 264 264 265 265 265 266 266 267 268 268 269 269 270 270 270 270 271 271 272 273 274 276 278 280 281 282 283 284 284 285 286 287 289 290 290 290
263 263 263 263 263 264 264 264 265 265 266 266 267 268 269 269 269 270 270 270 270 271 271 272 273 274 275 276 278 279 281 283 283 283 284 285 286 288 289 290 290 291
262 262 262 263 263 264 264 265 265 266 267 268 268 269 269 270 270 270 270 271 271 271 272 272 273 274 275 276 278 279 281 282 283 283 284 285 287 289 290 290 291 291
261 262 262 263 263 264 265 265 266 267 268 268 268 269 270 270 270 271 271 271 271 272 272 272 273 273 274 276 278 279 281 282 282 283 284 285 287 290 291 291 291 291
261 262 262 263 264 265 265 266 267 267 267 268 268 269 269 270 271 271 272 272 272 272 273 273 274 274 275 276 278 280 282 283 283 284 285 286 287 289 290 290 291 290
261 262 263 263 264 265 266 266 266 266 267 267 267 268 269 270 271 272 273 273 273 273 273 274 274 274 275 277 278 280 282 283 284 285 286 286 287 288 289 290 290 290
Wind_Speed
28 29 30 31 33 34 36 38 39 38 40 41 42 43 42 42 41 40 42 43 42 42 41 39 37 38 39 38 38 37 35 34 29 23 20 21 23 25 29 29 26 27
30 30 31 33 35 37 38 39 39 39 41 42 43 43 42 41 40 38 40 42 42 41 40 36 35 38 40 39 38 37 34 34 31 24 21 21 22 24 26 29 26 25
32 33 34 36 37 39 41 41 41 41 41 43 42 42 41 39 37 37 38 40 41 41 38 35 36 39 39 36 35 36 34 33 33 27 22 20 20 23 24 27 27 25
35 36 37 38 39 40 41 42 43 43 42 42 42 41 40 37 37 37 38 40 40 39 37 36 37 39 38 35 33 35 33 31 32 29 24 20 19 21 22 25 27 26
36 39 40 40 41 41 42 43 44 44 43 42 42 41 39 38 38 39 38 38 39 39 37 37 38 39 39 35 32 33 32 29 30 30 25 21 19 20 21 22 25 26
38 40 41 42 42 42 43 44 45 44 42 42 42 42 41 39 38 38 37 37 38 39 38 36 37 38 38 34 31 31 31 29 29 29 26 22 20 19 19 20 24 26
39 41 42 42 43 43 43 44 44 42 41 42 43 42 41 39 38 37 36 37 38 38 37 35 35 36 37 34 31 31 31 30 28 28 26 22 20 19 18 18 21 25
40 41 42 42 43 42 42 42 42 40 40 41 42 41 40 39 38 38 36 35 36 37 36 34 33 36 36 33 29 28 30 30 28 26 25 22 19 18 18 18 19 23
40 41 41 43 43 41 42 42 40 39 38 39 40 40 39 38 37 37 36 35 35 36 36 35 35 36 35 31 27 26 29 29 28 26 24 22 19 19 18 18 19 21
40 41 41 42 41 40 41 40 39 37 36 38 39 38 38 37 35 33 32 32 33 33 33 32 32 32 32 31 28 26 28 29 27 25 24 22 20 19 19 18 19 20
40 41 41 41 40 40 41 40 38 37 35 36 37 37 36 35 33 30 29 28 28 28 27 27 28 31 32 32 30 28 28 29 28 25 24 24 22 21 20 19 20 21
40 40 40 40 39 39 41 39 37 37 37 35 33 35 36 34 32 31 29 29 29 28 28 30 33 35 35 34 33 30 28 28 28 26 25 25 24 23 22 21 20 21
39 38 39 40 38 38 39 36 34 35 38 37 33 33 35 34 32 32 31 30 30 29 29 30 33 35 37 36 34 31 28 28 29 27 26 26 25 24 24 22 21 21
38 37 38 39 38 37 36 35 35 34 35 36 35 33 34 33 32 33 32 30 30 29 28 28 30 34 36 35 34 32 28 27 27 26 25 25 25 25 24 23 23 23
38 35 37 39 37 36 35 34 37 38 36 36 35 33 34 34 33 33 32 31 30 29 28 27 28 30 30 30 30 29 26 24 23 23 23 23 24 24 25 25 24 25
36 33 37 38 35 35 36 35 36 38 37 36 34 33 33 33 33 33 31 30 30 29 27 26 26 27 27 27 27 27 25 23 23 23 23 23 24 25 25 26 25 26
34 35 38 38 36 37 37 37 37 37 37 37 35 33 34 33 32 32 31 29 29 28 27 25 25 27 29 30 30 29 28 26 25 24 24 24 25 25 26 26 25 26
35 36 39 39 38 38 39 41 41 39 38 38 37 35 34 33 32 31 31 29 28 28 28 26 26 27 29 31 31 30 29 28 26 25 24 24 25 25 25 25 24 25
37 38 39 40 39 40 43 43 42 41 39 37 38 37 34 33 32 31 30 29 27 27 28 27 27 27 29 30 29 29 29 28 27 26 25 25 26 26 25 24 23 24
37 38 38 39 41 43 43 40 39 42 43 40 38 36 32 31 31 31 30 28 27 26 27 28 27 27 28 28 28 28 28 28 27 26 25 26 27 28 26 25 25 24
38 38 38 39 43 44 41 41 43 45 46 46 42 36 31 30 30 29 29 29 27 25 26 27 28 28 28 28 28 28 28 28 27 26 26 26 27 28 29 28 26 26
36 37 39 41 44 44 41 45 52 52 49 47 42 35 31 31 31 29 28 29 29 27 26 27 28 29 29 29 28 27 27 26 26 26 26 27 27 28 29 29 27 26
36 36 40 43 44 43 43 47 51 50 46 41 35 31 29 30 33 34 30 29 29 27 25 26 27 28 28 28 27 27 26 25 24 24 24 26 27 27 28 29 28 27
38 37 40 42 43 43 46 48 46 41 37 35 33 32 30 30 34 37 36 33 31 30 28 26 27 28 28 28 27 26 26 25 25 23 23 24 25 25 26 28 28 28
39 39 39 40 42 43 43 43 39 36 35 34 34 34 31 31 32 34 37 38 37 36 32 28 27 27 27 28 28 27 26 26 24 23 22 23 24 23 23 25 26 28
38 38 39 39 41 42 41 40 37 36 36 35 35 34 32 30 30 32 36 39 38 36 33 29 27 26 27 28 28 27 26 26 25 23 22 22 22 22 21 23 25 27
Wind_Direction
311 311 309 307 305 303 303 304 303 302 302 302 301 300 299 299 299 297 294 294 294 295 294 295 296 297 298 298 298 291 275 264 260 258 267 274 275 279 278 273 269 268
313 313 310 308 306 304 304 304 303 301 300 300 300 299 299 299 298 295 293 293 293 293 293 292 293 297 299 298 297 294 281 266 260 259 262 270 276 278 278 277 270 266
315 314 313 310 307 306 306 305 304 301 300 300 300 300 299 298 298 296 293 292 292 292 291 290 293 296 298 298 297 295 285 267 261 262 262 265 275 279 278 279 273 265
316 316 314 311 309 308 307 307 305 303 301 300 300 300 299 297 297 296 293 291 290 290 290 291 293 294 294 296 297 296 289 274 264 263 263 264 271 277 280 280 274 267
316 316 315 313 311 310 309 307 306 305 302 300 301 301 299 298 297 295 293 290 288 288 289 291 291 290 291 294 295 294 291 280 270 265 263 263 268 274 278 280 275 269
316 316 315 313 312 311 310 308 306 304 302 300 301 302 300 298 297 295 292 289 287 287 287 288 288 287 289 292 294 293 289 281 271 267 264 264 268 274 276 279 277 272
316 315 314 314 313 312 309 308 307 304 302 302 301 301 301 299 297 295 292 288 286 286 286 285 285 285 287 290 293 291 286 279 269 263 263 264 268 273 275 277 277 274
315 315 315 314 314 312 310 309 309 305 303 303 303 302 302 299 297 295 292 287 284 283 283 284 282 283 285 287 291 290 285 278 265 256 258 262 266 272 274 277 278 275
315 315 316 315 314 312 310 310 308 306 305 304 303 304 303 300 298 297 292 287 284 281 280 281 280 280 281 283 286 289 289 282 265 252 253 259 263 271 275 277 279 277
316 316 316 315 314 312 311 311 308 305 306 306 304 303 304 302 297 297 294 287 283 280 277 275 276 276 278 281 283 286 290 289 276 258 255 260 264 271 277 279 279 277
316 316 316 315 314 313 312 311 310 307 305 309 309 303 302 303 298 293 293 290 284 282 282 280 281 281 281 281 282 283 286 289 287 275 265 264 266 271 277 280 280 278
317 317 317 316 314 314 315 313 312 311 307 308 312 308 301 300 299 292 289 288 285 283 284 284 282 281 279 278 279 280 281 283 287 285 276 267 265 270 274 278 280 279
317 316 316 316 314 314 315 313 311 311 309 307 308 308 303 298 296 293 287 285 284 281 280 280 278 276 275 274 274 275 276 278 281 283 278 268 263 267 270 273 277 278
317 315 314 315 315 313 312 313 312 310 310 310 307 303 300 297 296 294 289 285 283 281 280 279 276 274 272 270 270 269 269 271 273 274 271 264 261 264 266 268 274 277
315 313 316 318 317 316 312 312 317 315 310 308 306 301 297 294 293 293 289 287 284 281 281 278 274 272 270 267 265 265 264 262 263 265 266 265 262 264 266 266 271 276
314 312 317 319 317 317 314 310 314 316 312 306 301 300 299 295 292 291 289 286 284 281 279 276 273 270 269 267 263 263 263 259 259 261 262 265 263 262 266 266 269 275
315 315 318 319 317 317 317 314 312 313 313 309 301 297 297 296 292 289 287 285 284 282 278 273 270 267 267 267 265 264 263 259 258 259 258 262 262 260 263 265 269 276
317 319 320 319 319 318 317 317 315 312 309 307 304 300 296 293 291 286 285 284 282 280 278 272 269 266 265 266 265 263 262 259 258 258 256 259 261 260 261 262 266 275
321 322 321 319 319 319 318 316 315 313 307 301 300 301 297 291 289 285 282 283 279 276 275 272 268 267 265 266 265 263 262 260 258 257 255 256 259 260 260 260 263 271
323 322 320 318 317 319 317 314 312 311 309 303 298 295 292 288 288 284 281 280 277 273 274 272 268 266 265 266 265 262 261 260 259 258 256 255 256 258 258 259 260 264
324 322 320 319 319 318 315 312 313 312 310 308 303 294 289 289 288 284 280 279 276 270 271 272 268 265 265 266 266 262 259 258 259 259 259 258 256 255 255 255 256 257
325 323 321 320 321 320 316 314 316 315 313 312 307 295 291 293 292 286 279 279 278 272 267 269 270 268 266 266 266 263 257 255 256 256 255 255 255 253 251 251 251 252
324 322 321 321 321 320 318 317 317 315 314 315 309 298 293 294 297 295 288 281 277 271 265 265 269 270 269 268 266 261 255 253 254 254 251 250 250 249 246 245 247 249
324 323 321 321 321 320 319 319 319 317 316 316 312 306 298 293 296 298 294 287 279 273 267 263 266 269 269 268 265 258 251 248 248 248 246 247 246 244 241 239 243 248
325 325 324 322 321 321 321 321 320 319 318 316 313 308 302 295 294 295 294 291 285 280 274 264 262 266 267 265 263 256 249 245 244 242 239 240 242 240 240 239 242 249
326 326 325 324 323 322 323 323 321 319 320 319 315 309 304 299 294 293 294 293 287 281 275 264 258 260 263 262 257 252 248 244 242 241 238 237 238 239 242 243 244 249